Le nostre stazioni meteo in Italia

Pubblicità
Il mio iltempo24.it
Catania/Fontanarossa, Italia (16460): Temperatura & dewpoint: 01.12.2019 10:00:00 - 07.12.2019 10:00:00 (CET)Catania/Fontanarossa, Italia (16460): velocità del vento: 01.12.2019 10:00:00 - 07.12.2019 10:00:00 (CET)Catania/Fontanarossa, Italia (16460): direzione del vento: 01.12.2019 10:00:00 - 07.12.2019 10:00:00 (CET)Catania/Fontanarossa, Italia (16460): reduced air pressure: 01.12.2019 10:00:00 - 07.12.2019 10:00:00 (CET)Catania/Fontanarossa, Italia (16460): visibility: 01.12.2019 10:00:00 - 07.12.2019 10:00:00 (CET)Catania/Fontanarossa, Italia (16460): precipitazioni: 01.12.2019 10:00:00 - 07.12.2019 10:00:00 (CET)
Data & Tempo tt [°C] td [°C] ff [km/h] ff [kn] dd ppp [hPa] vv [km] rr [mm]
07.12.2019 10:00:00 17,4 9,7 13 7 O 1023,4 10 0,0
07.12.2019 09:00:00 11,0 9,0 11 6 OSO - 10 -
07.12.2019 08:00:00 8,0 7,0 15 8 O - 10 -
07.12.2019 07:00:00 7,2 5,9 8 4 SO 1022,3 8 -
07.12.2019 06:00:00 9,0 7,0 8 4 SO - 10 -
07.12.2019 05:00:00 11,0 7,0 11 6 O - 10 -
07.12.2019 04:00:00 10,4 7,8 13 7 ONO 1021,9 10 0,0
07.12.2019 03:00:00 - - - - - - - -
07.12.2019 02:00:00 9,0 8,0 8 4 O - 10 -
07.12.2019 01:00:00 10,2 9,1 11 6 O 1022,4 10 -
07.12.2019 00:00:00 10,0 9,0 15 8 O - 10 -
06.12.2019 23:00:00 11,0 10,0 13 7 O - 10 -
06.12.2019 22:00:00 12,8 11,2 16 9 O 1023,0 10 0,0
06.12.2019 21:00:00 14,0 12,0 11 6 O - 10 -
06.12.2019 20:00:00 15,0 12,0 13 7 ONO - 10 -
06.12.2019 19:00:00 14,4 13,6 5 3 - 1022,7 7 -
06.12.2019 18:00:00 16,0 14,0 4 2 - - 10 -
06.12.2019 17:00:00 17,0 15,0 9 5 NNE - 10 -
06.12.2019 16:00:00 17,6 15,7 13 7 ENE 1021,5 10 0,0
06.12.2019 15:00:00 19,0 16,0 11 6 E - 10 -
06.12.2019 14:00:00 21,0 15,0 11 6 - - 10 -
06.12.2019 13:00:00 20,5 14,4 13 7 O 1022,0 10 -
06.12.2019 12:00:00 19,0 14,0 21 11 O - 10 -
06.12.2019 11:00:00 18,0 14,0 18 10 OSO - 10 -
06.12.2019 10:00:00 16,5 14,3 15 8 OSO 1023,5 10 0,0
06.12.2019 09:00:00 14,0 13,0 15 8 OSO - 10 -
06.12.2019 08:00:00 12,0 12,0 11 6 OSO - 10 -
06.12.2019 07:00:00 11,4 11,0 9 5 OSO 1022,3 10 -
06.12.2019 06:00:00 12,0 11,0 8 4 O - 8 -
06.12.2019 05:00:00 12,0 12,0 9 5 O - 8 -
06.12.2019 04:00:00 12,0 11,6 9 5 O 1021,6 7 0,0
06.12.2019 03:00:00 13,0 12,0 9 5 O - 10 -
06.12.2019 02:00:00 13,0 13,0 4 2 S - 10 -
06.12.2019 01:00:00 13,8 13,3 11 6 O 1022,4 10 -
06.12.2019 00:00:00 13,0 13,0 8 4 O - 10 -
05.12.2019 23:00:00 14,0 13,0 2 1 - - 10 -
05.12.2019 22:00:00 14,8 13,6 9 5 O 1022,6 10 0,0
05.12.2019 21:00:00 15,0 14,0 4 2 - - 10 -
05.12.2019 20:00:00 15,0 14,0 13 7 O - 10 -
05.12.2019 19:00:00 15,4 14,0 9 5 OSO 1021,9 10 -
05.12.2019 18:00:00 16,0 15,0 15 8 NNE - 10 -
05.12.2019 17:00:00 16,0 15,0 13 7 OSO - 10 -
05.12.2019 16:00:00 15,9 14,5 13 7 O 1020,4 10 0,0
05.12.2019 15:00:00 17,0 14,0 5 3 - - 10 -
05.12.2019 14:00:00 17,0 14,0 21 11 NE - 10 -
05.12.2019 13:00:00 16,9 14,3 5 3 NNE 1020,7 10 -
05.12.2019 12:00:00 15,0 13,0 8 4 SO - 10 -
05.12.2019 11:00:00 16,0 12,0 8 4 O - 10 -
05.12.2019 10:00:00 14,7 10,9 16 9 O 1021,4 10 0,0
05.12.2019 09:00:00 17,0 12,0 18 10 ENE - 10 -
05.12.2019 08:00:00 16,0 11,0 24 13 NE - 10 -
05.12.2019 07:00:00 15,4 10,9 15 8 NE 1020,8 10 -
05.12.2019 06:00:00 15,0 11,0 22 12 ENE - 10 -
05.12.2019 05:00:00 15,0 11,0 18 10 ENE - 10 -
05.12.2019 04:00:00 14,7 10,7 24 13 ENE 1020,1 10 0,0
05.12.2019 03:00:00 15,0 10,0 31 17 ENE - 10 -
05.12.2019 02:00:00 15,0 11,0 35 19 ENE - 10 -
05.12.2019 01:00:00 14,9 10,4 39 21 ENE 1018,3 10 -
05.12.2019 00:00:00 15,0 11,0 42 23 E - 10 -
04.12.2019 23:00:00 15,0 10,0 26 14 E - 10 -
04.12.2019 22:00:00 14,9 10,6 31 17 E 1020,6 10 0,0
04.12.2019 21:00:00 15,0 11,0 34 18 E - 10 -
04.12.2019 20:00:00 15,0 10,0 22 12 E - 10 -
04.12.2019 19:00:00 14,7 10,2 35 19 E 1019,2 10 -
04.12.2019 18:00:00 - - - - - - - -
04.12.2019 17:00:00 - - - - - - - -
04.12.2019 16:00:00 15,0 11,3 37 20 E 1017,7 10 0,0
04.12.2019 15:00:00 15,0 11,0 37 20 E - 10 -
04.12.2019 14:00:00 15,0 11,0 39 21 E - 10 -
04.12.2019 13:00:00 15,1 11,7 39 21 E 1017,7 10 -
04.12.2019 12:00:00 15,0 11,0 35 19 ENE - 10 -
04.12.2019 11:00:00 15,0 11,0 34 18 ENE - 10 -
04.12.2019 10:00:00 15,4 10,8 34 18 ENE 1019,5 10 0,0
04.12.2019 09:00:00 15,0 11,0 31 17 ENE - 10 -
04.12.2019 08:00:00 15,0 11,0 28 15 ENE - 10 -
04.12.2019 07:00:00 15,7 11,0 29 16 ENE 1018,1 8 -
04.12.2019 06:00:00 16,0 11,0 26 14 ENE - 10 -
04.12.2019 05:00:00 16,0 12,0 26 14 ENE - 10 -
04.12.2019 04:00:00 16,0 12,7 26 14 ENE 1017,5 10 0,0
04.12.2019 03:00:00 16,0 13,0 28 15 ENE - 10 -
04.12.2019 02:00:00 17,0 14,0 26 14 ENE - 10 -
04.12.2019 01:00:00 16,6 14,3 24 13 NE 1017,3 10 -
04.12.2019 00:00:00 16,0 16,0 21 11 NE - 10 -
03.12.2019 23:00:00 12,0 12,0 8 4 OSO - 10 -
03.12.2019 22:00:00 12,8 12,1 8 4 OSO 1016,1 8 0,0
03.12.2019 21:00:00 16,0 15,0 2 1 - - 7 -
03.12.2019 20:00:00 18,0 16,0 11 6 NE - 8 -
03.12.2019 19:00:00 17,5 16,6 13 7 ENE 1014,8 8 -
03.12.2019 18:00:00 18,0 17,0 13 7 ENE - 7 -
03.12.2019 17:00:00 18,0 17,0 18 10 ENE - 7 -
03.12.2019 16:00:00 18,7 17,4 18 10 ENE 1013,6 7 0,0
03.12.2019 15:00:00 19,0 17,0 16 9 ENE - 7 -
03.12.2019 14:00:00 19,0 17,0 21 11 NE - 10 -
03.12.2019 13:00:00 19,3 17,2 21 11 ENE 1014,5 10 -
03.12.2019 12:00:00 19,0 17,0 21 11 NE - 10 -
03.12.2019 11:00:00 19,0 17,0 16 9 ENE - 10 -
03.12.2019 10:00:00 18,7 16,8 16 9 ENE 1016,6 10 0,0
03.12.2019 09:00:00 19,0 17,0 15 8 NE - 10 -
03.12.2019 08:00:00 18,0 17,0 16 9 NE - 8 -
03.12.2019 07:00:00 17,1 16,4 13 7 NE 1016,0 6 -
03.12.2019 06:00:00 15,0 14,0 2 1 - - 5 -
03.12.2019 05:00:00 14,0 14,0 4 2 - - 5 -
03.12.2019 04:00:00 13,7 13,4 2 1 - 1016,6 5 0,0
03.12.2019 03:00:00 14,0 13,0 5 3 O - 4,0 -
03.12.2019 02:00:00 13,0 12,0 8 4 O - 6 -
03.12.2019 01:00:00 12,5 12,1 8 4 OSO 1017,7 6 -
03.12.2019 00:00:00 12,0 11,0 5 3 OSO - 4,0 -
02.12.2019 23:00:00 12,0 11,0 8 4 OSO - 4,0 -
02.12.2019 22:00:00 12,8 12,1 5 3 SO 1018,1 8 0,0
02.12.2019 21:00:00 15,0 14,0 2 1 - - 10 -
02.12.2019 20:00:00 16,0 15,0 2 1 - - 10 -
02.12.2019 19:00:00 15,4 14,0 4 2 - 1017,8 10 -
02.12.2019 18:00:00 16,0 14,0 4 2 - - 10 -
02.12.2019 17:00:00 17,0 14,0 8 4 NNE - 10 -
02.12.2019 16:00:00 16,4 14,1 5 3 E 1017,7 10 0,0
02.12.2019 15:00:00 18,0 15,0 4 2 E - 10 -
02.12.2019 14:00:00 18,0 14,0 2 1 - - 10 -
02.12.2019 13:00:00 16,7 14,0 2 1 - 1019,1 10 -
02.12.2019 12:00:00 15,0 13,0 8 4 SO - 10 -
02.12.2019 11:00:00 14,0 12,0 5 3 OSO - 10 -
02.12.2019 10:00:00 13,6 12,0 8 4 OSO 1020,6 10 0,0
02.12.2019 09:00:00 12,0 11,0 9 5 SO - 10 -
02.12.2019 08:00:00 10,0 9,0 8 4 OSO - 10 -
02.12.2019 07:00:00 9,5 9,0 8 4 O 1020,2 10 -
02.12.2019 06:00:00 10,0 9,0 9 5 OSO - 10 -
02.12.2019 05:00:00 9,0 9,0 11 6 OSO - 10 -
02.12.2019 04:00:00 8,4 7,9 5 3 OSO 1020,6 10 0,0
02.12.2019 03:00:00 8,0 8,0 9 5 OSO - 10 -
02.12.2019 02:00:00 9,0 8,0 8 4 OSO - 10 -
02.12.2019 01:00:00 9,0 8,3 8 4 O 1021,6 10 -
02.12.2019 00:00:00 9,0 8,0 9 5 OSO - 10 -
01.12.2019 23:00:00 11,0 10,0 8 4 SO - 10 -
01.12.2019 22:00:00 10,7 9,8 9 5 OSO 1022,3 10 0,0
01.12.2019 21:00:00 12,0 11,0 2 1 - - 10 -
01.12.2019 20:00:00 13,0 12,0 4 2 - - 10 -
01.12.2019 19:00:00 14,4 13,5 4 2 OSO 1022,6 10 -
01.12.2019 18:00:00 15,0 14,0 5 3 E - 10 -
01.12.2019 17:00:00 15,0 13,0 11 6 E - 10 -
01.12.2019 16:00:00 16,8 13,8 11 6 ENE 1021,9 10 0,0
01.12.2019 15:00:00 18,0 14,0 15 8 ENE - 10 -
01.12.2019 14:00:00 18,0 14,0 16 9 E - 10 -
01.12.2019 13:00:00 17,8 13,6 13 7 ENE 1022,5 10 -
01.12.2019 12:00:00 18,0 12,0 4 2 - - 10 -
01.12.2019 11:00:00 16,0 10,0 9 5 SO - 10 -
01.12.2019 10:00:00 13,4 9,5 13 7 OSO 1023,6 10 0,0

tt = Temperatura
td = dewpoint
ff = velocità del vento
dd = direzione del vento
ppp = reduced air pressure
vv = visibility
rr = precipitazioni

Stazioni seguenti

WeatherPro
AMSI
MeteoEarth